Location: Lecco
(45.8566°N, 9.3977°E)
Time: 20:08:09
(UTC+01:00)

ISS - Visible Passes

Search period start: 11 December 2017 00:00
Search period end: 21 December 2017 00:00
Orbit: 402 x 407 km, 51.6° (Epoch: 11 December)

Date Brightness Start Highest point End Pass type
(mag) Time Alt. Az. Time Alt. Az. Time Alt. Az.
11 Dec -3.6 18:11:59 10° WNW 18:15:11 50° NNE 18:15:48 43° ENE visible
12 Dec -3.1 17:19:44 10° NW 17:22:51 37° NNE 17:25:57 10° E visible
12 Dec -2.6 18:56:12 10° WNW 18:58:40 42° W 18:58:40 42° W visible
13 Dec -3.9 18:03:55 10° WNW 18:07:13 88° NNE 18:09:02 24° ESE visible
13 Dec -0.3 19:41:18 10° W 19:41:44 12° WSW 19:41:44 12° WSW visible
14 Dec -3.7 17:11:39 10° WNW 17:14:54 57° NNE 17:18:09 10° ESE visible
14 Dec -1.8 18:48:25 10° W 18:51:13 26° SW 18:52:21 21° S visible
15 Dec -2.7 17:55:53 10° WNW 17:59:03 45° SW 18:02:12 10° SE visible
16 Dec -0.6 18:41:20 10° WSW 18:42:48 12° SW 18:44:15 10° SSW visible
17 Dec -1.1 17:48:07 10° W 17:50:43 22° SW 17:53:18 10° S visible
19 Dec 0.2 17:42:01 10° SW 17:42:11 10° SW 17:42:23 10° SW visible
